Rygge, Norway

6:19 AM CET on January 22, 2018 (GMT +0100)
Rygge Air Base

Weather History for ENRY - November, 2012

Change the Weather History Date:

Sunday, November 11, 2012

  Actual Average Record
Temperature  
Mean Temperature 44 °F -  
Max Temperature 47 °F 37 °F 50 °F (2001)
Min Temperature 41 °F 29 °F 15 °F (2002)
Degree Days  
Heating Degree Days 21    
Moisture  
Dew Point 42 °F    
Average Humidity 92    
Maximum Humidity 100    
Minimum Humidity 77    
Precipitation  
Precipitation 0.16 in - - ()
Sea Level Pressure  
Sea Level Pressure 29.43 in    
Wind  
Wind Speed 10 mph ()    
Max Wind Speed 16 mph    
Max Gust Speed 28 mph    
Visibility 3.4 miles    
Events Rain    
Averages and records for this station are not official NWS values.
T = Trace of Precipitation, MM = Missing Value Source: Averaged Metar Reports

Daily Weather History Graph

Daily Weather History Graph

Search for Another Location

Airport or City:

Trip Planner

Search our weather history database for the weather conditions in past years. The results will help you decide how hot, cold, wet, or windy it might be!

Date:

Astronomy

Nov. 11, 2012 Rise Set
Actual Time 8:02 AM CET 3:59 PM CET
Civil Twilight 7:15 AM CET 4:45 PM CET
Nautical Twilight 6:25 AM CET 5:35 PM CET
Astronomical Twilight 5:37 AM CET 6:23 PM CET
Moon 4:20 AM CET (11/11) 2:41 PM CET (11/11)
Length of Visible Light 9h 30m
Length of Day
7h 56m
Waning Crescent, 9% of the Moon is Illuminated
Nov 11
Waning Crescent
Nov 13
New
Nov 20
First Quarter
Nov 28
Full
Dec 6
Last Quarter

Hourly Weather History & Observations

Time (CET) Temp. Windchill Dew Point Humidity Pressure Visibility Wind Dir Wind Speed Gust Speed Precip Events Conditions
12:20 AM 44.6 °F 39.2 °F 42.8 °F 93% 29.50 in - SE 10.4 mph - N/A   Overcast
12:50 AM 44.6 °F 39.7 °F 42.8 °F 93% 29.50 in 1.6 mi SE 9.2 mph - N/A   Drizzle
1:00 AM 44 °F - 43 °F 96% 29.52 in 2 mi SE 8.9 mph - - Rain Drizzle
1:20 AM 44.6 °F 39.2 °F 42.8 °F 93% 29.47 in 1.3 mi SE 10.4 mph - N/A   Drizzle
1:50 AM 44.6 °F 39.2 °F 42.8 °F 93% 29.47 in 3.1 mi SE 10.4 mph - N/A   Overcast
2:20 AM 44.6 °F 39.2 °F 42.8 °F 93% 29.47 in - SSE 10.4 mph - N/A   Overcast
2:50 AM 44.6 °F 39.2 °F 42.8 °F 93% 29.47 in 1.4 mi SE 10.4 mph - N/A   Overcast
3:20 AM 44.6 °F 38.8 °F 42.8 °F 93% 29.47 in - SE 11.5 mph - N/A   Drizzle
3:50 AM 44.6 °F 38.8 °F 42.8 °F 93% 29.44 in 1.6 mi SE 11.5 mph - N/A Rain Rain
4:20 AM 44.6 °F 38.8 °F 42.8 °F 93% 29.44 in 5.6 mi SE 11.5 mph - N/A   Drizzle
4:50 AM 42.8 °F 37.0 °F 42.8 °F 100% 29.44 in 4.3 mi SE 10.4 mph - N/A Rain Rain
5:20 AM 42.8 °F 37.0 °F 42.8 °F 100% 29.44 in 5.0 mi SE 10.4 mph - N/A Rain Light Rain
5:50 AM 42.8 °F 36.6 °F 42.8 °F 100% 29.44 in 3.7 mi SE 11.5 mph - N/A   Overcast
6:20 AM 42.8 °F 36.6 °F 42.8 °F 100% 29.44 in 2.5 mi SE 11.5 mph - N/A   Drizzle
6:50 AM 42.8 °F 36.2 °F 42.8 °F 100% 29.42 in 1.6 mi SE 12.7 mph - N/A   Drizzle
7:00 AM 43 °F - 42 °F 96% 29.44 in 2 mi SE 13.4 mph - - Rain Light Rain Showers
7:20 AM 42.8 °F 36.2 °F 42.8 °F 100% 29.42 in 1.9 mi SE 12.7 mph - N/A   Drizzle
7:50 AM 42.8 °F 36.2 °F 42.8 °F 100% 29.42 in - SE 12.7 mph - N/A Rain Light Rain
8:20 AM 44.6 °F 39.2 °F 42.8 °F 93% 29.42 in 1.4 mi SE 10.4 mph - N/A   Drizzle
8:50 AM 44.6 °F 38.8 °F 42.8 °F 93% 29.42 in - SE 11.5 mph - N/A   Drizzle
9:20 AM 44.6 °F 40.2 °F 44.6 °F 100% 29.42 in 1.4 mi SE 8.1 mph - N/A   Drizzle
9:50 AM 46.4 °F 42.4 °F 44.6 °F 93% 29.42 in - SSE 8.1 mph - N/A   Mostly Cloudy
10:20 AM 46.4 °F 41.9 °F 46.4 °F 100% 29.39 in 2.8 mi South 9.2 mph - N/A   Light Drizzle
10:50 AM 46.4 °F 41.5 °F 46.4 °F 100% 29.39 in 2.2 mi South 10.4 mph - N/A   Mostly Cloudy
11:20 AM 46.4 °F 41.1 °F 44.6 °F 93% 29.39 in 1.9 mi South 11.5 mph - N/A   Light Drizzle
11:50 AM 46.4 °F 40.7 °F 46.4 °F 100% 29.36 in 0.7 mi South 12.7 mph - N/A Rain Light Rain
12:20 PM 46.4 °F 40.7 °F 46.4 °F 100% 29.36 in 1.6 mi South 12.7 mph - N/A   Drizzle
12:50 PM 46.4 °F 40.4 °F 46.4 °F 100% 29.33 in 1.6 mi SSE 13.8 mph - N/A Rain Rain
1:00 PM 47 °F - 46 °F 97% 29.35 in 2 mi South 15.7 mph - - Rain Heavy Rain
1:20 PM 46.4 °F 40.7 °F 46.4 °F 100% 29.33 in 3.1 mi South 12.7 mph - N/A Rain Rain
1:50 PM 46.4 °F 39.8 °F 46.4 °F 100% 29.33 in 5.0 mi South 16.1 mph 27.6 mph N/A   Mostly Cloudy
2:20 PM 46.4 °F 40.1 °F 44.6 °F 93% 29.30 in 6.2 mi South 15.0 mph - N/A Rain Light Rain
2:50 PM 46.4 °F 41.1 °F 44.6 °F 93% 29.30 in 6.2 mi SSW 11.5 mph - N/A   Mostly Cloudy
3:20 PM 46.4 °F 40.1 °F 44.6 °F 93% 29.33 in 6.2 mi SW 15.0 mph - N/A   Mostly Cloudy
3:50 PM 46.4 °F 40.1 °F 41.0 °F 81% 29.39 in 6.2 mi WSW 15.0 mph - N/A   Mostly Cloudy
4:20 PM 44.6 °F 39.2 °F 41.0 °F 87% 29.39 in 6.2 mi WSW 10.4 mph - N/A   Scattered Clouds
4:50 PM 42.8 °F 37.0 °F 39.2 °F 87% 29.42 in 6.2 mi SW 10.4 mph - N/A   Partly Cloudy
5:20 PM 42.8 °F 36.6 °F 39.2 °F 87% 29.42 in - SW 11.5 mph - N/A   Clear
5:50 PM 42.8 °F 36.6 °F 39.2 °F 87% 29.44 in - SW 11.5 mph - N/A   Clear
6:20 PM 42.8 °F 36.6 °F 39.2 °F 87% 29.44 in - SW 11.5 mph - N/A   Clear
6:50 PM 42.8 °F 37.5 °F 39.2 °F 87% 29.44 in - SW 9.2 mph - N/A   Clear
7:00 PM 43 °F - 38 °F 77% 29.47 in 25 mi SW 8.9 mph - -   Partly Cloudy
7:20 PM 42.8 °F 37.5 °F 37.4 °F 81% 29.44 in - SW 9.2 mph - N/A   Clear
7:50 PM 42.8 °F 38.0 °F 37.4 °F 81% 29.47 in - SW 8.1 mph - N/A   Clear
9:20 PM 41.0 °F 35.2 °F 35.6 °F 81% 29.50 in - SW 9.2 mph - N/A   Clear
9:50 PM 41.0 °F 35.2 °F 35.6 °F 81% 29.50 in - SW 9.2 mph - N/A   Clear
10:50 PM 41.0 °F 35.2 °F 35.6 °F 81% 29.53 in - SW 9.2 mph - N/A   Clear
11:20 PM 41.0 °F 35.8 °F 35.6 °F 81% 29.53 in 6.2 mi SW 8.1 mph - N/A   Unknown
11:50 PM 41.0 °F 34.7 °F 35.6 °F 81% 29.56 in 6.2 mi SW 10.4 mph - N/A   Scattered Clouds